Regional Weather Roundup
Issued by NWS Goodland, KS

Home | Current Version | Previous Version | Graphics & Text | Print | Product List | Glossary On
Versions: 1 2 3 4 5 6 7 8 9 10 11 12 13 14 15 16 17 18 19 20 21 22 23 24 25 26 27 28 29 30 31 32 33 34 35 36 37 38 39 40 41 42 43 44 45 46 47 48 49 50
000
ASUS43 KGLD 011708
RWRGLD

GOODLAND FORECAST AREA HOURLY WEATHER ROUNDUP
NATIONAL WEATHER SERVICE GOODLAND KS
1000 AM MST SUN FEB 01 2015

...OFFICIAL OBSERVATIONS...

CITY           SKY/WX    TMP DP  RH WIND       PRES   REMARKS
GOODLAND KS    PTSUNNY   18  11  74 N32G44    30.20R WCI  -2
HILL CITY KS   MIX PCPN  16   8  71 N31G41    30.21R WCI  -4
IMPERIAL NEB   SUNNY     13   4  67 N33G44    30.26R BLWGSNOWWCI  -9
MCCOOK NEB     MOSUNNY   13   3  64 NW30      30.25R WCI  -8
AKRON CO       CLOUDY    18  15  88 N17       30.19R WCI   3
BURLINGTON CO  PTSUNNY   19  12  74 N25G35    30.18R WCI   1
LIMON CO       LGT SNOW  20  15  81 N13       30.15R WCI   7
$$

...UNOFFICIAL OBSERVATIONS...

CITY           SKY/WX    TMP DP  RH WIND       PRES   REMARKS
COLBY KS       CLOUDY    18  12  79 NW29G38   30.20S WCI  -2
GOVE KS          N/A     19  32 100 MISG        N/A
NORTON KS      CLOUDY    14   5  67 NW29G37   30.20R HAZE    WCI  -7
SHARON SPRINGS   N/A     22  16  78 N28G41      N/A  WCI   5
KIT CARSON CO    N/A     25  19  77 MISG        N/A
YUMA CO          N/A     15  10  78 N15G23      N/A  WCI   0
$$



USA.gov is the U.S. government's official web portal to all federal, state and local government web resources and services.